Regional Weather Roundup
Issued by NWS Grand Forks, ND

Home | Current Version | Previous Version | Text Only | Print | Product List | Glossary On
Versions: 1 2 3 4 5 6 7 8 9 10 11 12 13 14 15 16 17 18 19 20 21 22 23 24 25 26 27 28 29 30 31 32 33 34 35 36 37 38 39 40 41 42 43 44 45 46 47 48 49 50
000
ASUS43 KFGF 201410
RWRFGF
PRAIRIE TO PINES  WEATHER ROUNDUP
NATIONAL WEATHER SERVICE EASTERN NORTH DAKOTA/GRAND FORKS ND
900 AM CDT SUN APR 20 2014

 **SATELLITE DATA USED TO AUGMENT SKY COVER AT AUTOMATED STATIONS**
 *****  WEATHER ACROSS EASTERN NORTH DAKOTA  *****

CITY           SKY/WX    TMP DP  RH WIND       PRES   REMARKS
GRAND FORKS    MOSUNNY   43  35  73 CALM      30.03F
GRAND FRKS AFB SUNNY     43  36  77 CALM      30.03F
GRAND FRKS NWS   N/A     43 N/A N/A E1          N/A
DEVILS LAKE    SUNNY     39  32  75 SE8       29.99S
FARGO          SUNNY     49  36  61 VRB6      30.02F
WAHPETON ARPT  SUNNY     48  34  57 SE8       30.03S
$$

 ***** WEATHER ACROSS CENTRAL AND WESTERN NORTH DAKOTA  *****

CITY           SKY/WX    TMP DP  RH WIND       PRES   REMARKS
BISMARCK       SUNNY     46  32  58 SE7       29.97R
MINOT          SUNNY     42  35  76 CALM      29.90S
JAMESTOWN      SUNNY     46  38  73 S13       29.99F
MINOT AFB      MOSUNNY   40  37  91 SE5       29.89F
GARRISON         N/A     43  37  79 SE7       29.92S
WILLISTON      CLOUDY    43  35  73 CALM      29.85F
DICKINSON      MOSUNNY   50  29  44 S16       29.87S
HETTINGER      MOSUNNY   46  30  53 SE5       29.93R
$$

 *****  OTHER AIRPORT OBSERVATIONS IN OUR AREA  *****

CITY           SKY/WX    TMP DP  RH WIND       PRES   REMARKS
WALHALLA         N/A     41  37  87 CALM      30.03F
GRAFTON AIRPOR FAIR      39  34  81 CALM      30.03F
VALLEY CITY AR FAIR      43  41  93 S7        30.01F
CANDO          FAIR      39  34  81 SE9       29.98F
CAVALIER APRT  FAIR      41  34  75 CALM      30.03F
GWINNER        SUNNY     48  39  71 SE13      30.02F
SHEYENNE NWR     N/A     50  42  75 S6        29.95
ROLLA          FAIR      37  37 100 SE9       29.98S
 ***** THE ABOVE OBSERVATIONS ARE NON NWS ARE NOT QUALITY
       CONTROLLED AND MAY MIS-REPORT RAIN FOR SNOW...
$$

  *****  WEATHER ACROSS NORTHERN MINNESOTA  *****

CITY           SKY/WX    TMP DP  RH WIND       PRES   REMARKS
FLAG ISLAND    SUNNY     36  28  75 CALM      30.03S
WARROAD        SUNNY     39  34  81 CALM      30.05S
ROSEAU         SUNNY     41  34  75 CALM      30.05S
HALLOCK        CLOUDY    37  34  87 SE3       30.04S
THF RVR FALLS  SUNNY     41  34  75 CALM      30.05S
BAUDETTE       SUNNY     40  32  73 W5        30.05S
WASKISH        SUNNY     39  37  93 CALM      30.06S
CROOKSTON      SUNNY     43  37  81 CALM      30.04F
$$
  *****  WEATHER ACROSS CENTRAL AND WEST MINNESOTA  *****

CITY           SKY/WX    TMP DP  RH WIND       PRES   REMARKS
FOSSTON        SUNNY     45  37  76 CALM      30.03F
BEMIDJI        SUNNY     44  35  71 CALM      30.04S
PARK RAPIDS    SUNNY     45  37  73 SE3       30.03F
ELBOW LAKE     FAIR      49  35  59 E12       30.02F
WADENA         SUNNY     45  37  76 SE6       30.04S
DETROIT LAKES  SUNNY     46  36  66 SE7       30.04S
MOORHEAD       NOT AVBL
FERGUS FALLS   SUNNY     52  32  46 CALM      30.00F
MORRIS MN      SUNNY     52  37  58 E13       30.02F
STAPLES        SUNNY     46  36  66 E3        30.04F
$$
  *****  WEATHER ELSEWHERE ACROSS MINNESOTA  *****

CITY           SKY/WX    TMP DP  RH WIND       PRES   REMARKS
DULUTH         SUNNY     46  36  68 N7        30.03F
INTRNTL FALLS  SUNNY     41  31  67 W7        30.05R
ELY            SUNNY     43  36  75 CALM      30.04S
CLOQUET        SUNNY     46  37  71 NW7       30.04S
WHEATON        SUNNY     52  39  62 SE9       30.04F
BRAINERD       SUNNY     53  37  54 NE3       30.05F
HIBBING        SUNNY     44  37  76 CALM      30.04F
ALEXANDRIA     SUNNY     50  34  54 E12       30.04F
SAINT CLOUD    SUNNY     51  40  65 N3        30.05R
MINNEAPOLIS    MOSUNNY   53  47  79 VRB3      30.05S
$$

  *****  WEATHER ACROSS SOUTH DAKOTA  *****

CITY           SKY/WX    TMP DP  RH WIND       PRES   REMARKS
SIOUX FALLS    MOSUNNY   58  40  51 N7        30.00S
BROOKINGS      NOT AVBL
WATERTOWN      SUNNY     51  37  58 E5        30.00F
HURON          SUNNY     53  32  44 SE5       30.00R
SISSETON         N/A     50  38  63 S12       30.02F
ABERDEEN       SUNNY     44  35  70 SW7       30.01S
MITCHELL       SUNNY     50  33  52 CALM      30.01S
PIERRE         SUNNY     50  29  44 E8        29.96S
MOBRIDGE       SUNNY     47  36  65 SE9       29.95S
RAPID CITY     SUNNY     48  33  56 SE5       29.91S
$$

  *****  SOME WEATHER IN NEARBY STATES *****

CITY           SKY/WX    TMP DP  RH WIND       PRES   REMARKS
GLASGOW MT     PTSUNNY   39  31  72 W9        29.88R
GREAT FALLS MT SUNNY     44  23  43 SW17      30.03R
CHEYENNE WY    SUNNY     53  36  52 NW9       30.08R
SCOTTSBLUFF NE SUNNY     48  38  68 CALM      30.01R
OMAHA NE       PTSUNNY   66  49  54 S8        29.99R
DES MOINES IA  MOSUNNY   66  47  50 S9        30.05S
DAVENPORT IA   PTSUNNY   64  40  41 S17       30.14S
CHICAGO IL     PTSUNNY   57  31  37 S12       30.21F
EAU CLAIRE WI  CLOUDY    58  51  78 SW7       30.05S
LA CROSSE WI   CLOUDY    53  51  93 CALM      30.08F
$$

  *****  SOME NATIONAL WEATHER *****

CITY           SKY/WX    TMP DP  RH WIND       PRES   REMARKS
LA GUARDIA NY  PTSUNNY   49  28  44 NE10      30.49R
RALEIGH NC     PTSUNNY   56  35  45 NE16G26   30.25R
ATLANTA GA     MOSUNNY   60  41  49 NE18G24   30.23F
NEW ORLEANS LA MOSUNNY   69  60  73 E7        30.18R
OKLAHOMA CITY  CLOUDY    61  54  77 S10       30.10F
ALBUQUERQUE NM PTSUNNY   48  44  86 SE6       30.15R
SALT LAKE CITY PTSUNNY   53  42  66 CALM      30.09R
LOS ANGELES CA PTCLDY    58  55  90 E3        30.05R
BOISE ID       SUNNY     42  31  64 W8        30.24R
SEATTLE WA     MOCLDY    43  39  86 SE9       30.28R
$$

*** WEATHER ACROSS MANITOBA...SASKATCHEWAN AND ONTARIO ***
                ***ONTARIO***

CITY           SKY/WX    TMP DP  RH WIND       PRES   REMARKS
GERALDTON      CLOUDY    36  36 100 SW8       29.97S
THUNDER BAY    SUNNY     34  32  93 SW3       30.02F
SIOUX LOOKOUT  PTSUNNY   37  28  70 NW9       29.97S
TORONTO        PTSUNNY   46  28  49 SE10      30.38F
BIG TROUT LK   LGT SNOW  34  32  93 W14G20    29.71R WCI  24
PICKLE LAKE    PTSUNNY   36  30  80 W17G28    29.86S
DRYDEN         MOSUNNY   37  30  75 W12       29.99R
KENORA         MOSUNNY   36  27  69 SW9       30.02S
$$
                *** MANITOBA***

CITY           SKY/WX    TMP DP  RH WIND       PRES   REMARKS
BRANDON        PTSUNNY   34  32  93 E6        30.00S
DAUPHIN        SUNNY     36  32  87 W3        29.99S
ISLAND LAKE    LGT SNOW  32  32 100 W10       29.84R DRFTSNOWWCI  24
PILOT MOUND      N/A     39  34  81 E7          N/A
THE PAS        MOSUNNY   30  30 100 CALM      29.95S
THOMPSON       CLOUDY    30  30 100 N6        29.89R WCI  24
WINNIPEG       MOSUNNY   37  30  75 NW5       30.04S
CHURCHILL      PTSUNNY   18  14  86 NE8       29.96S WCI   7
GILLAM         FLURRIES  27  27 100 N9        29.86  WCI  17
$$
                ***SASKATCHEWAN***

CITY           SKY/WX    TMP DP  RH WIND       PRES   REMARKS
ESTEVAN        CLOUDY    37  36  93 E12       29.86F
KINDERSLEY     PTSUNNY   41  32  70 S14       29.73F
LLOYDMINSTER   CLOUDY    36  32  87 E7        29.80R
PRINCE ALBERT  PTSUNNY   28  28 100 E6        29.89F WCI  22
REGINA         PTSUNNY   37  34  87 E12       29.85F
YORKTON        SUNNY     34  30  86 SE5       29.93F
N. BATTLEFORD  SUNNY     37  32  81 SE14      29.83S
LA RONGE       NOT AVBL
SASKATOON      PTSUNNY   34  30  86 SE6       29.88R
SWIFT CURRENT  PTSUNNY   46  34  61 W15G22    29.79R
$$
NOTE: THESE ARE AUTOMATED STATIONS WITH LIMITED QUALITY CONTROL
      "FAIR" INDICATES FEW OR NO CLOUDS BELOW 12,000 FEET WITH NO
      SIGNIFICANT WEATHER AND/OR OBSTRUCTIONS TO VISIBILITY.
      SKY/WX - SKY CONDITION AND SIGNIFICANT WEATHER.
      TMP - AIR TEMPERATURE.    DP   - DEWPOINT TEMPERATURE.
      RH  - RELATIVE HUMIDITY.  PRES - PRESSURE.
      HX  - HEAT INDEX.         WCI  - WIND CHILL INDEX.
$



USA.gov is the U.S. government's official web portal to all federal, state and local government web resources and services.